TimeCST,TemperatureF,Dew PointF,Humidity,Sea Level PressureIn,VisibilityMPH,Wind Direction,Wind SpeedMPH,Gust SpeedMPH,PrecipitationIn,Events,Conditions,WindDirDegrees,DateUTC
12:53 AM,34.0,32.0,92,30.20,10.0,WNW,3.5,-,N/A,,Clear,290,2012-11-08 06:53:00
1:53 AM,35.1,32.0,89,30.21,10.0,Calm,Calm,-,N/A,,Clear,0,2012-11-08 07:53:00
2:53 AM,32.0,30.0,92,30.22,9.0,NW,4.6,-,N/A,,Clear,320,2012-11-08 08:53:00
3:53 AM,32.0,30.0,92,30.23,8.0,NNW,3.5,-,N/A,,Clear,330,2012-11-08 09:53:00
4:53 AM,32.0,30.0,92,30.24,5.0,Calm,Calm,-,N/A,,Clear,0,2012-11-08 10:53:00
5:15 AM,32.0,30.2,93,30.23,2.0,Calm,Calm,-,N/A,,Clear,0,2012-11-08 11:15:00
5:25 AM,32.0,30.2,93,30.24,1.2,Calm,Calm,-,N/A,,Clear,0,2012-11-08 11:25:00
5:36 AM,30.2,30.2,100,30.24,3.0,Calm,Calm,-,N/A,,Clear,0,2012-11-08 11:36:00
5:53 AM,32.0,30.0,92,30.25,5.0,Calm,Calm,-,N/A,,Clear,0,2012-11-08 11:53:00
6:01 AM,32.0,30.2,93,30.25,1.8,Calm,Calm,-,N/A,,Clear,0,2012-11-08 12:01:00
6:11 AM,30.2,30.2,100,30.25,3.0,Calm,Calm,-,N/A,,Clear,0,2012-11-08 12:11:00
6:28 AM,30.2,28.4,93,30.26,1.0,Calm,Calm,-,N/A,,Mist,0,2012-11-08 12:28:00
6:45 AM,30.2,30.2,100,30.26,1.2,Calm,Calm,-,N/A,,Partly Cloudy,0,2012-11-08 12:45:00
6:53 AM,30.9,30.0,96,30.27,7.0,SSW,3.5,-,N/A,,Clear,210,2012-11-08 12:53:00
7:53 AM,36.0,36.0,100,30.29,10.0,Calm,Calm,-,N/A,,Clear,0,2012-11-08 13:53:00
8:53 AM,44.1,39.9,85,30.30,10.0,SSE,4.6,-,N/A,,Clear,150,2012-11-08 14:53:00
9:53 AM,48.9,41.0,74,30.30,10.0,South,6.9,-,N/A,,Clear,180,2012-11-08 15:53:00
10:53 AM,53.1,37.9,57,30.27,10.0,Variable,5.8,-,N/A,,Clear,0,2012-11-08 16:53:00
11:53 AM,54.0,37.0,53,30.25,10.0,Variable,5.8,-,N/A,,Clear,0,2012-11-08 17:53:00
12:53 PM,55.9,37.0,49,30.22,10.0,SSE,6.9,-,N/A,,Clear,160,2012-11-08 18:53:00
1:53 PM,55.9,36.0,47,30.20,10.0,SSW,4.6,-,N/A,,Clear,210,2012-11-08 19:53:00
2:53 PM,57.9,36.0,44,30.19,10.0,WSW,3.5,-,N/A,,Unknown,250,2012-11-08 20:53:00
3:53 PM,57.0,36.0,45,30.18,10.0,Calm,Calm,-,N/A,,Clear,0,2012-11-08 21:53:00
4:53 PM,54.0,37.9,55,30.18,10.0,SW,3.5,-,N/A,,Clear,230,2012-11-08 22:53:00
5:53 PM,52.0,37.0,57,30.19,10.0,South,4.6,-,N/A,,Clear,170,2012-11-08 23:53:00
6:53 PM,50.0,36.0,59,30.18,10.0,SSE,4.6,-,N/A,,Clear,150,2012-11-09 00:53:00
7:53 PM,48.0,37.0,66,30.18,10.0,SSE,5.8,-,N/A,,Clear,160,2012-11-09 01:53:00
8:53 PM,44.1,36.0,73,30.17,10.0,South,5.8,-,N/A,,Clear,190,2012-11-09 02:53:00
9:53 PM,44.1,36.0,73,30.16,10.0,South,3.5,-,N/A,,Clear,180,2012-11-09 03:53:00
10:53 PM,45.0,36.0,71,30.15,10.0,SSE,5.8,-,N/A,,Clear,160,2012-11-09 04:53:00
11:53 PM,45.0,36.0,71,30.17,10.0,South,4.6,-,N/A,,Clear,170,2012-11-09 05:53:00